Location: Cary
(35.7910°N, 78.7810°W)
Time: 10:14:17
(UTC-05:00)

Tiangong - Visible Passes

Search period start: 28 November 2021 00:00
Search period end: 08 December 2021 00:00
Orbit: 381 x 385 km, 41.5° (Epoch: 28 November)

Date Brightness Start Highest point End Pass type
(mag) Time Alt. Az. Time Alt. Az. Time Alt. Az.
28 Nov 3.1 05:43:42 17° SW 05:43:45 17° SW 05:45:50 10° S visible
05 Dec 3.1 18:25:01 10° S 18:26:59 17° SSE 18:26:59 17° SSE visible
06 Dec 3.0 19:00:09 10° SW 19:01:51 28° SW 19:01:51 28° SW visible
07 Dec 2.2 18:00:06 10° SSW 18:02:55 31° SSE 18:04:27 20° E visible
07 Dec 4.7 19:36:34 10° W 19:36:37 10° W 19:36:37 10° W visible
